STARLINK-31840, 60127

Orbit data source: Space-Track

STARLINK-31840, 60127 is a payload satellite owned by SpaceX/Seattle (US) in LEO that was launched on Mon, 24 Jun 2024 UTC via an FALCON 9 launch vehicle from the Air Force Western Test Range (AFWTR). Payload-class satellites include a variety of spacecraft equipped with specific instruments for various scientific and technological missions. These include communications satellites like Starlink; space stations such as the ISS; scientific satellites like the Hubble; Earth observation satellites from companies like Planet Labs, Umbra, and HawkEye 360; GPS; miniature CubeSats for education and research; and military/defense satellites.

Loading next visibility...
Identifier
60127, 2024-118Q
Orbit
LEO
Country
Flag of USUS
Related business
Manufacturer
SpaceX/Seattle
Mission
Operational Commercial Communications
Bus & Motor
STARLINK V2M, Unknown motor
Mass
730 kg wet, ~700 kg dry
Launch date (UTC)
2024-06-24 (2 years ago)
Launch vehicle
FALCON 9
Launch site
Air Force Western Test Range (AFWTR)
Object type
Payload
Rocket body
Debris
Shape & HBR
Box + 2 Pan, 17.7 m
Radar Cross Section
33.884 m², Large (>1 m²)

Expand to show TLE details & history
Last TLE update: 21 hours ago

TLE from 21 hours ago
0 STARLINK-31840
1 60127U 24118Q   26126.41362929 -.00000914  00000-0 -18745-4 0  9990
2 60127  53.1599 118.6387 0001142  86.7980 273.3151 15.30182057104537
Epoch: 2026-05-06T09:55Z
TLE epoch observation values (Epoch: 2026-05-06T09:55:37.570Z)
Latitude
-0.00006°
Longitude
105.45764°
Altitude
476.123 km
Speed
7.629 km/s
True Right ascension
07h 54m 33s
True Declination
0° 00' 00"
Sunlit
Object was in daylight at epoch
Visualization orbit readout
Latitude
Unknown
Longitude
Unknown
Altitude
Unknown
Speed
Unknown
Apparent Right ascension
Unknown
Apparent Declination
Unknown
Sunlit
N/A
Visualization observer readout
Local Sidereal Time
14:43:51
Azimuth
Unknown
Elevation
Unknown
Doppler factor
Unknown
Orbital elements
Apogee altitude
476.308 km
Perigee altitude
474.742 km
Semi-major axis
6,853.662 km
Eccentricity
0.00011
Inclination
53.1599°
RAAN
118.6387°
Arg. of periapsis
86.798°
True anomaly
273.30204°
Mean anomaly
273.3151°
Eccentric anomaly
273.30857°
Mean motion
3.82524 °/min
Orbital period
94.11 mins
BSTAR
-0.000018745
Loading maneuver chart data...
Computing Atmospheric mass density...
Loading historical data...
Loading historical data...
Loading historical data...
Loading historical data...
Loading historical data...
Loading historical data...
Loading historical data...

Documentation

Showing up to 5 results
|